Content
SEND FEEDBACK

Daily
Averages
Monthly
Summary
Canada

VANCOUVER - CITY HALL, BRITISH COLUMBIA


Home > North America > Canada > British Columbia
Elevation: 283 feet     Latitude: 49 17N     Longitude: 123 07W

WEATHER
 
SELECT A DAY
Number of Records: 172,357;   Date Range: 4/23/95 - 10/19/14
 
SHARE

PRINT THIS DATA

[ ← Previous Day ]
WEATHER ALMANAC - JUNE 12, 2013
[ Next Day → ]
[ °C ]   °F
Weather ElementAverageHighLow
Temperature54.1 °F62.4 °F (5:00 pm)49.8 °F (4:00 am)
Dewpoint46.1 °F49.5 °F (11:00 am)43 °F (5:00 pm)
Humidity74.5 %92 % (9:00 am)39 % (5:00 pm)
Barometer30.13 in30.15 in (10:00 am)30.09 in (1:00 am)
Wind Speed2.7 mph4.6 mph (5:00 am)
Weather ElementAverage
Wind DirectionESE (107.4 °)

Weather ElementTotal
Precipitation0.23 in
Heating Degree Days8.9 (Base 65)
Growing Degree Days6.1 (Base 50)
Averaged from 27 records on June 12, 2013
WEATHER CONDITIONS BREAKOUT
WIND DIRECTION BREAKOUT
WEATHER BY HOUR - JUNE 12, 2013
[ °C ]   °F
Local TimeTemperatureDewpointHumidityBarometerVisibilityWind DirectionWind SpeedGust SpeedPrecipitationEventsConditions
1:00 AM50.9 °F47.1 °F87 %30.09 inNE (40°)2.3 mph
2:00 AM50.4 °F47.5 °F90 %30.09 inNNE (30°)2.3 mph
3:00 AM50.2 °F45.9 °F85 %30.09 inENE (60°)3.5 mph0.02 in
4:00 AM49.8 °F45.1 °F84 %30.10 inEast (80°)3.5 mph
5:00 AM51.0 °F44.0 °F71 %30.10 inENE (70°)4.6 mph
5:00 AM50.9 °F44.4 °F78 %30.10 inENE (70°)4.6 mph
6:00 AM51.4 °F44.8 °F78 %30.11 inEast (80°)3.5 mph
7:00 AM51.6 °F45.1 °F79 %30.12 inEast (80°)3.5 mph
8:00 AM51.6 °F46.2 °F82 %30.12 inESE (110°)2.3 mph
9:00 AM50.0 °F47.8 °F92 %30.14 inEast (80°)3.5 mph0.04 in
10:00 AM50.4 °F48.2 °F92 %30.15 inEast (100°)2.3 mph0.05 in
11:00 AM52.0 °F49.0 °F88 %30.15 inEast (90°)2.3 mph
11:00 AM52.2 °F49.5 °F91 %30.15 inEast (90°)2.3 mph0.11 in
12:00 PM53.8 °F48.4 °F82 %30.15 inEast (90°)3.5 mph
1:00 PM58.6 °F49.3 °F71 %30.14 inSSE (150°)1.2 mph
2:00 PM59.9 °F45.3 °F59 %30.14 inSW (230°)2.3 mph
3:00 PM55.8 °F49.5 °F79 %30.15 inSE (130°)1.2 mph
4:00 PM61.3 °F48.4 °F62 %30.14 inSE (140°)1.2 mph0.01 in
5:00 PM62.0 °F43.0 °F39 %30.13 inSouth (190°)2.3 mph
5:00 PM62.4 °F43.3 °F50 %30.13 inSouth (190°)2.3 mph
6:00 PM62.1 °F45.7 °F55 %30.13 inSSW (210°)1.2 mph
7:00 PM60.1 °F46.2 °F60 %30.13 inSW (220°)1.2 mph
8:00 PM57.0 °F43.7 °F61 %30.13 inWNW (300°)1.2 mph
9:00 PM52.7 °F45.7 °F77 %30.13 inNorth (10°)2.3 mph
10:00 PM51.4 °F45.0 °F79 %30.13 inNNE (20°)2.3 mph
11:00 PM51.0 °F43.0 °F66 %30.14 inNNE (20°)4.6 mph
11:00 PM51.3 °F43.2 °F74 %30.14 inNNE (20°)4.6 mph
Hourly data recorded from CWWA, located miles away from Vancouver - City Hall, British Columbia







STORIES FROM OUR PARTNERS